2023/01/28 00:00:00,78.8,-4.7
2023/01/28 00:10:00,78.7,-4.1
2023/01/28 00:20:00,78.5,-4.4
2023/01/28 00:30:00,78.4,-4.5
2023/01/28 00:40:00,78.3,-4.5
2023/01/28 00:50:00,78.2,-4.5
2023/01/28 01:00:00,78.0,-4.4
2023/01/28 01:10:00,77.9,-4.5
2023/01/28 01:20:00,77.8,-4.6
2023/01/28 01:30:00,77.7,-4.4
2023/01/28 01:40:00,77.6,-4.7
2023/01/28 01:50:00,77.5,-4.5
2023/01/28 02:00:00,77.4,-4.3
2023/01/28 02:10:00,77.3,-4.5
2023/01/28 02:20:00,77.2,-3.7
2023/01/28 02:30:00,77.1,-4.4
2023/01/28 02:40:00,77.0,-4.6
2023/01/28 02:50:00,77.0,-4.4
2023/01/28 03:00:00,76.9,-4.7
2023/01/28 03:10:00,76.8,-4.3
2023/01/28 03:20:00,76.7,-4.6
2023/01/28 03:30:00,76.5,-4.6
2023/01/28 03:40:00,76.4,-4.6
2023/01/28 03:50:00,76.3,-4.6
2023/01/28 04:00:00,76.5,-4.8
2023/01/28 04:10:00,77.0,-5.0
2023/01/28 04:20:00,77.1,-4.8
2023/01/28 04:30:00,77.2,-4.7
2023/01/28 04:40:00,77.1,-4.8
2023/01/28 04:50:00,76.9,-4.8
2023/01/28 05:00:00,76.9,-4.8
2023/01/28 05:10:00,76.9,-4.5
2023/01/28 05:20:00,76.9,-4.7
2023/01/28 05:30:00,77.0,-4.5
2023/01/28 05:40:00,77.1,-4.7
2023/01/28 05:50:00,77.1,-4.8
2023/01/28 06:00:00,77.4,-4.9
2023/01/28 06:10:00,77.5,-4.8
2023/01/28 06:20:00,77.3,-4.5
2023/01/28 06:30:00,77.2,-4.6
2023/01/28 06:40:00,77.4,-4.7
2023/01/28 06:50:00,77.6,-4.6
2023/01/28 07:00:00,77.5,-4.8
2023/01/28 07:10:00,77.5,-4.5
2023/01/28 07:20:00,77.6,-4.5
2023/01/28 07:30:00,78.4,-4.4
2023/01/28 07:40:00,79.3,-4.4
2023/01/28 07:50:00,79.4,-4.1
2023/01/28 08:00:00,79.5,-4.3
2023/01/28 08:10:00,79.3,-4.1
2023/01/28 08:20:00,79.2,-4.0
2023/01/28 08:30:00,79.3,-3.6
2023/01/28 08:40:00,79.3,-3.9
2023/01/28 08:50:00,79.7,-3.2
2023/01/28 09:00:00,79.8,-3.3
2023/01/28 09:10:00,80.0,-3.2
2023/01/28 09:20:00,79.9,-2.7
2023/01/28 09:30:00,79.9,-2.8
2023/01/28 09:40:00,80.7,-3.3
2023/01/28 09:50:00,81.5,-3.0
2023/01/28 10:00:00,81.4,-2.8
2023/01/28 10:10:00,81.4,-3.2
2023/01/28 10:20:00,81.3,-2.5
2023/01/28 10:30:00,81.3,-1.8
2023/01/28 10:40:00,81.4,-2.1
2023/01/28 10:50:00,81.5,-2.5
2023/01/28 11:00:00,81.9,-2.4
2023/01/28 11:10:00,82.2,-2.2
2023/01/28 11:20:00,82.2,-1.6
2023/01/28 11:30:00,82.2,-1.8
2023/01/28 11:40:00,82.1,-2.0
2023/01/28 11:50:00,82.0,-1.9
2023/01/28 12:00:00,82.1,-2.0
2023/01/28 12:10:00,82.5,-2.8
2023/01/28 12:20:00,83.1,-2.2
2023/01/28 12:30:00,83.5,-2.3
2023/01/28 12:40:00,84.1,-2.5
2023/01/28 12:50:00,84.9,-2.4
2023/01/28 13:00:00,85.5,-3.1
2023/01/28 13:10:00,85.9,-3.0
2023/01/28 13:20:00,86.2,-1.7
2023/01/28 13:30:00,86.1,-1.7
2023/01/28 13:40:00,86.0,-2.2
2023/01/28 13:50:00,86.3,-2.7
2023/01/28 14:00:00,86.4,-2.3
2023/01/28 14:10:00,86.2,-1.9
2023/01/28 14:20:00,86.0,-1.3
2023/01/28 14:30:00,85.9,-0.8
2023/01/28 14:40:00,85.9,-1.5
2023/01/28 14:50:00,85.8,-1.9
2023/01/28 15:00:00,85.7,-1.9
2023/01/28 15:10:00,85.6,-2.3
2023/01/28 15:20:00,85.6,-3.1
2023/01/28 15:30:00,85.5,-2.8
2023/01/28 15:40:00,85.5,-3.4
2023/01/28 15:50:00,85.3,-3.9
2023/01/28 16:00:00,85.2,-3.8
2023/01/28 16:10:00,85.0,-4.4
2023/01/28 16:20:00,85.7,-4.4
2023/01/28 16:30:00,86.6,-4.8
2023/01/28 16:40:00,87.2,-4.5
2023/01/28 16:50:00,88.2,-4.6
2023/01/28 17:00:00,88.2,-4.9
2023/01/28 17:10:00,88.0,-4.7
2023/01/28 17:20:00,87.6,-5.0
2023/01/28 17:30:00,87.2,-5.1
2023/01/28 17:40:00,86.9,-5.0
2023/01/28 17:50:00,87.1,-5.1
2023/01/28 18:00:00,86.8,-5.1
2023/01/28 18:10:00,86.8,-5.1
2023/01/28 19:20:00, 0.0,-5.2
2023/01/28 19:30:00,86.5,-5.4
2023/01/28 19:40:00,86.3,-5.2
2023/01/28 19:50:00,86.2,-5.2
2023/01/28 20:00:00,86.1,-5.2
2023/01/28 20:10:00,86.0,-5.4
2023/01/28 20:20:00,86.1,-5.3
2023/01/28 20:30:00,86.0,-5.4
2023/01/28 20:40:00,85.9,-5.2
2023/01/28 20:50:00,85.7,-5.5
2023/01/28 21:00:00,85.6,-5.4
2023/01/28 21:10:00,85.5,-5.2
2023/01/28 21:20:00,85.5,-5.2
2023/01/28 21:30:00,85.3,-5.4
2023/01/28 21:40:00,85.3,-5.2
2023/01/28 21:50:00,85.2,-5.2
2023/01/28 22:00:00,85.2,-5.2
2023/01/28 22:10:00,85.1,-5.0
2023/01/28 22:20:00,85.0,-5.2
2023/01/28 22:30:00,84.9,-5.2
2023/01/28 22:40:00,84.8,-5.0
2023/01/28 22:50:00,84.7,-4.9
2023/01/28 23:00:00,84.6,-5.1
2023/01/28 23:10:00,84.6,-5.0
2023/01/28 23:20:00,84.6,-5.2
2023/01/28 23:30:00,84.5,-5.2
2023/01/28 23:40:00,84.4,-4.9
2023/01/28 23:50:00,84.4,-4.9
